2024-174E

Last updated on Fri Oct 25 2024 00:02:04 GMT+0000 (Coordinated Universal Time)

1 61242U 24174E 24298.58597250 .00013342 00000+0 67874-3 0 9996 2 61242 97.4574 303.3764 0016536 173.5868 186.5580 15.16835315 4441
UTC large
Height (km)
Speed (km/s)
/
Latitude / Longitude
Inclination (degrees)
Orbital Period (minutes)
Azimuth
Elevation
Range (km)
Doppler Factor

Next 0 passes for location: London (51.5072 / 0.1276)

Sorry there are no passes over London.